| time (UTC) | temp C | wind direction | speed KPH | gust KPH | rain 1hr cm | rain 24hr cm | rain mn cm | humidity % | barometer mb |
| 20260506044510 | 20 | 252 | 4.8 | 14.5 | 0.00 | 0.00 | 0.00 | 73 | 1013.9 |
| 20260506044006 | 20 | 29 | 1.6 | 17.7 | 0.00 | 0.00 | 0.00 | 72 | 1013.9 |
| 20260506043503 | 20 | 270 | 0.0 | 14.5 | 0.00 | 0.00 | 0.00 | 72 | 1013.8 |
| 20260506043001 | 20 | 210 | 6.4 | 9.7 | 0.00 | 0.00 | 0.00 | 72 | 1013.7 |
| 20260506042501 | 20 | 191 | 4.8 | 11.3 | 0.00 | 0.00 | 0.00 | 72 | 1013.6 |
| 20260506041958 | 20 | 327 | 0.0 | 11.3 | 0.00 | 0.00 | 0.00 | 71 | 1013.7 |
| 20260506041456 | 20 | 60 | 8.0 | 17.7 | 0.00 | 0.00 | 0.00 | 71 | 1013.9 |
| 20260506040953 | 20 | 87 | 4.8 | 6.4 | 0.00 | 0.00 | 0.00 | 71 | 1013.7 |
| 20260506040450 | 20 | 303 | 0.0 | 16.1 | 0.00 | 0.00 | 0.00 | 70 | 1013.9 |
| 20260506035946 | 20 | 140 | 3.2 | 20.9 | 0.00 | 0.00 | 0.00 | 70 | 1013.7 |
| 20260506035443 | 20 | 243 | 1.6 | 8.0 | 0.00 | 0.00 | 0.00 | 69 | 1013.7 |
| 20260506034940 | 21 | 97 | 1.6 | 11.3 | 0.00 | 0.00 | 0.00 | 69 | 1013.7 |
| 20260506034438 | 21 | 180 | 1.6 | 12.9 | 0.00 | 0.00 | 0.00 | 69 | 1013.6 |
| 20260506033934 | 21 | 206 | 0.0 | 4.8 | 0.00 | 0.00 | 0.00 | 68 | 1013.7 |
| 20260506033432 | 21 | 162 | 9.7 | 17.7 | 0.00 | 0.00 | 0.00 | 68 | 1013.7 |
| 20260506032928 | 21 | 210 | 4.8 | 11.3 | 0.00 | 0.00 | 0.00 | 67 | 1013.8 |
| 20260506032425 | 21 | 204 | 3.2 | 6.4 | 0.00 | 0.00 | 0.00 | 67 | 1013.8 |
| 20260506031922 | 21 | 215 | 6.4 | 8.0 | 0.00 | 0.00 | 0.00 | 66 | 1013.5 |
| 20260506031419 | 21 | 165 | 6.4 | 12.9 | 0.00 | 0.00 | 0.00 | 65 | 1013.5 |
| 20260506030917 | 21 | 202 | 3.2 | 4.8 | 0.00 | 0.00 | 0.00 | 65 | 1013.7 |
| 20260506030415 | 21 | 191 | 3.2 | 6.4 | 0.00 | 0.00 | 0.00 | 64 | 1013.4 |
| 20260506025911 | 21 | 151 | 1.6 | 11.3 | 0.00 | 0.00 | 0.00 | 63 | 1013.6 |
| 20260506025409 | 21 | 236 | 4.8 | 6.4 | 0.00 | 0.00 | 0.00 | 62 | 1013.5 |
| 20260506024905 | 21 | 353 | 1.6 | 12.9 | 0.00 | 0.00 | 0.00 | 61 | 1013.8 |
| 20260506024402 | 21 | 184 | 3.2 | 6.4 | 0.00 | 0.00 | 0.00 | 61 | 1013.6 |
| 20260506023858 | 21 | 139 | 3.2 | 8.0 | 0.00 | 0.00 | 0.00 | 61 | 1013.7 |
| 20260506023355 | 21 | 185 | 4.8 | 8.0 | 0.00 | 0.00 | 0.00 | 60 | 1013.9 |
| 20260506022851 | 21 | 185 | 4.8 | 8.0 | 0.00 | 0.00 | 0.00 | 60 | 1013.5 |
| 20260506022349 | 21 | 195 | 0.0 | 3.2 | 0.00 | 0.00 | 0.00 | 60 | 1013.7 |
| 20260506021847 | 21 | 180 | 3.2 | 8.0 | 0.00 | 0.00 | 0.00 | 59 | 1013.6 |
| 20260506021344 | 21 | 140 | 4.8 | 8.0 | 0.00 | 0.00 | 0.00 | 58 | 1013.9 |
| 20260506020840 | 22 | 192 | 3.2 | 9.7 | 0.00 | 0.00 | 0.00 | 58 | 1013.4 |
| 20260506020339 | 22 | 209 | 0.0 | 3.2 | 0.00 | 0.00 | 0.00 | 58 | 1013.5 |
| 20260506015836 | 22 | 192 | 3.2 | 6.4 | 0.00 | 0.00 | 0.00 | 57 | 1013.4 |
| 20260506015333 | 22 | 187 | 0.0 | 3.2 | 0.00 | 0.00 | 0.00 | 57 | 1013.3 |
| 20260506014830 | 22 | 180 | 0.0 | 6.4 | 0.00 | 0.00 | 0.00 | 56 | 1013.4 |
| 20260506014327 | 22 | 199 | 4.8 | 9.7 | 0.00 | 0.00 | 0.00 | 55 | 1013.2 |
| 20260506013823 | 22 | 157 | 0.0 | 9.7 | 0.00 | 0.00 | 0.00 | 55 | 1013.1 |
| 20260506013321 | 22 | 150 | 3.2 | 4.8 | 0.00 | 0.00 | 0.00 | 55 | 1013.2 |
| 20260506012817 | 22 | 145 | 4.8 | 11.3 | 0.00 | 0.00 | 0.00 | 54 | 1013.0 |
| 20260506012314 | 23 | 48 | 0.0 | 12.9 | 0.00 | 0.00 | 0.00 | 53 | 1013.3 |
| 20260506011812 | 23 | 236 | 6.4 | 9.7 | 0.00 | 0.00 | 0.00 | 53 | 1013.2 |
| 20260506011308 | 23 | 212 | 4.8 | 8.0 | 0.00 | 0.00 | 0.00 | 53 | 1012.9 |
| 20260506010806 | 23 | 180 | 4.8 | 9.7 | 0.00 | 0.00 | 0.00 | 53 | 1013.1 |
| 20260506010303 | 23 | 185 | 3.2 | 8.0 | 0.00 | 0.00 | 0.00 | 53 | 1013.0 |
| 20260506005800 | 23 | 140 | 0.0 | 4.8 | 0.00 | 0.00 | 0.00 | 53 | 1012.9 |
| 20260506005257 | 23 | 285 | 1.6 | 6.4 | 0.00 | 0.00 | 0.00 | 53 | 1012.8 |
| 20260506004753 | 23 | 208 | 0.0 | 8.0 | 0.00 | 0.00 | 0.00 | 53 | 1012.7 |
| 20260506004251 | 23 | 85 | 3.2 | 4.8 | 0.00 | 0.00 | 0.00 | 52 | 1012.7 |
| 20260506003746 | 23 | 180 | 1.6 | 8.0 | 0.00 | 0.00 | 0.00 | 51 | 1012.8 |
| 20260506003243 | 23 | 180 | 0.0 | 8.0 | 0.00 | 0.00 | 0.00 | 51 | 1012.7 |
| 20260506002739 | 23 | 71 | 1.6 | 8.0 | 0.00 | 0.00 | 0.00 | 50 | 1012.6 |
| 20260506002235 | 23 | 212 | 3.2 | 11.3 | 0.00 | 0.00 | 0.00 | 50 | 1012.8 |
| 20260506001731 | 24 | 240 | 4.8 | 11.3 | 0.00 | 0.00 | 0.00 | 49 | 1012.3 |
| 20260506001229 | 24 | 180 | 1.6 | 6.4 | 0.00 | 0.00 | 0.00 | 48 | 1012.5 |
| 20260506000725 | 23 | 238 | 4.8 | 8.0 | 0.00 | 0.00 | 0.00 | 49 | 1012.7 |
| 20260506000223 | 24 | 199 | 0.0 | 8.0 | 0.00 | 0.00 | 0.00 | 48 | 1012.5 |
| 20260505235720 | 24 | 90 | 3.2 | 6.4 | 0.00 | 0.00 | 0.00 | 48 | 1012.4 |
| 20260505235218 | 24 | 105 | 4.8 | 9.7 | 0.00 | 0.00 | 0.00 | 48 | 1012.6 |
| 20260505234715 | 24 | 61 | 4.8 | 4.8 | 0.00 | 0.00 | 0.00 | 47 | 1012.6 |
| 20260505234212 | 25 | 191 | 0.0 | 9.7 | 0.00 | 0.00 | 0.00 | 46 | 1012.4 |
| 20260505233708 | 25 | 178 | 4.8 | 9.7 | 0.00 | 0.00 | 0.00 | 46 | 1012.3 |
| 20260505233206 | 25 | 205 | 4.8 | 9.7 | 0.00 | 0.00 | 0.00 | 46 | 1012.4 |
| 20260505232704 | 25 | 245 | 6.4 | 6.4 | 0.00 | 0.00 | 0.00 | 45 | 1012.5 |
| 20260505232201 | 25 | 124 | 0.0 | 11.3 | 0.00 | 0.00 | 0.00 | 45 | 1012.4 |
| 20260505231657 | 25 | 162 | 0.0 | 4.8 | 0.00 | 0.00 | 0.00 | 45 | 1012.3 |
| 20260505231156 | 25 | 220 | 3.2 | 8.0 | 0.00 | 0.00 | 0.00 | 45 | 1012.4 |
| 20260505230654 | 25 | 282 | 4.8 | 9.7 | 0.00 | 0.00 | 0.00 | 44 | 1012.4 |
| 20260505230150 | 26 | 76 | 9.7 | 9.7 | 0.00 | 0.00 | 0.00 | 44 | 1012.4 |
| 20260505225647 | 26 | 180 | 0.0 | 4.8 | 0.00 | 0.00 | 0.00 | 44 | 1012.5 |
| 20260505225143 | 26 | 201 | 3.2 | 11.3 | 0.00 | 0.00 | 0.00 | 42 | 1012.3 |
| 20260505224639 | 26 | 180 | 8.0 | 16.1 | 0.00 | 0.00 | 0.00 | 42 | 1012.3 |
| 20260505224138 | 26 | 255 | 4.8 | 12.9 | 0.00 | 0.00 | 0.00 | 41 | 1012.4 |
| 20260505223635 | 27 | 210 | 6.4 | 14.5 | 0.00 | 0.00 | 0.00 | 39 | 1012.1 |
| 20260505223130 | 27 | 255 | 6.4 | 8.0 | 0.00 | 0.00 | 0.00 | 40 | 1012.3 |
| 20260505222627 | 27 | 148 | 3.2 | 19.3 | 0.00 | 0.00 | 0.00 | 40 | 1012.3 |
| 20260505222123 | 27 | 256 | 0.0 | 8.0 | 0.00 | 0.00 | 0.00 | 40 | 1012.3 |
| 20260505221620 | 28 | 239 | 0.0 | 4.8 | 0.00 | 0.00 | 0.00 | 39 | 1012.3 |
| 20260505221116 | 28 | 72 | 3.2 | 6.4 | 0.00 | 0.00 | 0.00 | 38 | 1011.9 |
| 20260505220614 | 27 | 63 | 6.4 | 11.3 | 0.00 | 0.00 | 0.00 | 39 | 1012.2 |
| 20260505220112 | 27 | 210 | 9.7 | 16.1 | 0.00 | 0.00 | 0.00 | 38 | 1012.2 |
| 20260505215609 | 27 | 216 | 4.8 | 27.4 | 0.00 | 0.00 | 0.00 | 38 | 1012.2 |
| 20260505215107 | 27 | 217 | 4.8 | 4.8 | 0.00 | 0.00 | 0.00 | 37 | 1012.1 |
| 20260505214605 | 27 | 148 | 11.3 | 11.3 | 0.00 | 0.00 | 0.00 | 38 | 1011.7 |
| 20260505214102 | 27 | 173 | 4.8 | 9.7 | 0.00 | 0.00 | 0.00 | 37 | 1012.0 |
| 20260505213559 | 28 | 168 | 3.2 | 3.2 | 0.00 | 0.00 | 0.00 | 38 | 1012.0 |
| 20260505213056 | 28 | 82 | 0.0 | 11.3 | 0.00 | 0.00 | 0.00 | 36 | 1011.9 |
| 20260505212552 | 28 | 43 | 0.0 | 19.3 | 0.00 | 0.00 | 0.00 | 35 | 1012.0 |
| 20260505212050 | 28 | 52 | 11.3 | 12.9 | 0.00 | 0.00 | 0.00 | 36 | 1012.1 |
| 20260505211546 | 28 | 255 | 3.2 | 11.3 | 0.00 | 0.00 | 0.00 | 35 | 1012.0 |
| 20260505211043 | 28 | 285 | 8.0 | 14.5 | 0.00 | 0.00 | 0.00 | 35 | 1011.9 |
| 20260505210540 | 28 | 283 | 3.2 | 12.9 | 0.00 | 0.00 | 0.00 | 34 | 1012.1 |
| 20260505210037 | 28 | 98 | 1.6 | 9.7 | 0.00 | 0.00 | 0.00 | 34 | 1011.9 |
| 20260505205535 | 28 | 235 | 3.2 | 20.9 | 0.00 | 0.00 | 0.00 | 34 | 1011.8 |
| 20260505205032 | 28 | 222 | 4.8 | 11.3 | 0.00 | 0.00 | 0.00 | 32 | 1011.7 |
| 20260505204530 | 30 | 349 | 4.8 | 14.5 | 0.00 | 0.00 | 0.00 | 31 | 1011.9 |
| 20260505204026 | 30 | 226 | 6.4 | 12.9 | 0.00 | 0.00 | 0.00 | 32 | 1011.8 |
| 20260505203523 | 30 | 165 | 3.2 | 17.7 | 0.00 | 0.00 | 0.00 | 31 | 1011.9 |
| 20260505203020 | 30 | 225 | 9.7 | 14.5 | 0.00 | 0.00 | 0.00 | 31 | 1011.8 |
| 20260505202516 | 30 | 281 | 3.2 | 8.0 | 0.00 | 0.00 | 0.00 | 32 | 1012.0 |
| 20260505202012 | 30 | 286 | 4.8 | 11.3 | 0.00 | 0.00 | 0.00 | 31 | 1012.0 |
| 20260505201510 | 30 | 241 | 8.0 | 8.0 | 0.00 | 0.00 | 0.00 | 31 | 1012.1 |
| 20260505201007 | 30 | 216 | 14.5 | 14.5 | 0.00 | 0.00 | 0.00 | 30 | 1012.1 |
| 20260505200505 | 30 | 228 | 0.0 | 20.9 | 0.00 | 0.00 | 0.00 | 31 | 1012.1 |
| 20260505200000 | 30 | 286 | 3.2 | 9.7 | 0.00 | 0.00 | 0.00 | 30 | 1012.2 |
| 20260505195457 | 30 | 261 | 0.0 | 12.9 | 0.00 | 0.00 | 0.00 | 30 | 1012.2 |
| 20260505194955 | 30 | 262 | 3.2 | 17.7 | 0.00 | 0.00 | 0.00 | 32 | 1012.0 |
| 20260505194452 | 30 | 198 | 3.2 | 20.9 | 0.00 | 0.00 | 0.00 | 32 | 1012.2 |
| 20260505193952 | 30 | 217 | 8.0 | 9.7 | 0.00 | 0.00 | 0.00 | 32 | 1012.4 |
| 20260505193450 | 30 | 257 | 4.8 | 11.3 | 0.00 | 0.00 | 0.00 | 31 | 1012.4 |
| 20260505192947 | 30 | 203 | 0.0 | 8.0 | 0.00 | 0.00 | 0.00 | 32 | 1012.4 |
| 20260505192446 | 31 | 231 | 8.0 | 8.0 | 0.00 | 0.00 | 0.00 | 32 | 1012.5 |
| 20260505191943 | 30 | 175 | 12.9 | 14.5 | 0.00 | 0.00 | 0.00 | 32 | 1012.6 |
| 20260505191441 | 30 | 288 | 4.8 | 12.9 | 0.00 | 0.00 | 0.00 | 31 | 1012.9 |
| 20260505190938 | 30 | 165 | 6.4 | 17.7 | 0.00 | 0.00 | 0.00 | 30 | 1012.7 |
| 20260505190433 | 30 | 225 | 8.0 | 12.9 | 0.00 | 0.00 | 0.00 | 29 | 1012.8 |
| 20260505185928 | 29 | 265 | 3.2 | 16.1 | 0.00 | 0.00 | 0.00 | 30 | 1012.9 |
| 20260505185426 | 29 | 168 | 1.6 | 17.7 | 0.00 | 0.00 | 0.00 | 31 | 1013.2 |
| 20260505184922 | 30 | 258 | 6.4 | 16.1 | 0.00 | 0.00 | 0.00 | 31 | 1013.0 |
| 20260505184420 | 30 | 241 | 3.2 | 11.3 | 0.00 | 0.00 | 0.00 | 32 | 1013.1 |
| 20260505183916 | 30 | 282 | 6.4 | 14.5 | 0.00 | 0.00 | 0.00 | 30 | 1013.2 |
| 20260505183413 | 30 | 188 | 4.8 | 16.1 | 0.00 | 0.00 | 0.00 | 32 | 1013.2 |
| 20260505182910 | 30 | 194 | 1.6 | 14.5 | 0.00 | 0.00 | 0.00 | 32 | 1013.4 |
| 20260505182407 | 30 | 33 | 8.0 | 16.1 | 0.00 | 0.00 | 0.00 | 34 | 1013.5 |
| 20260505181903 | 29 | 237 | 11.3 | 20.9 | 0.00 | 0.00 | 0.00 | 33 | 1013.4 |
| 20260505181400 | 29 | 60 | 3.2 | 9.7 | 0.00 | 0.00 | 0.00 | 33 | 1013.5 |
| 20260505180857 | 29 | 208 | 6.4 | 11.3 | 0.00 | 0.00 | 0.00 | 34 | 1013.7 |
| 20260505180353 | 29 | 279 | 3.2 | 11.3 | 0.00 | 0.00 | 0.00 | 37 | 1013.8 |
| 20260505175850 | 28 | 306 | 6.4 | 17.7 | 0.00 | 0.00 | 0.00 | 36 | 1013.8 |
| 20260505175346 | 28 | 306 | 1.6 | 14.5 | 0.00 | 0.00 | 0.00 | 35 | 1013.8 |
| 20260505174843 | 29 | 151 | 3.2 | 11.3 | 0.00 | 0.00 | 0.00 | 36 | 1013.7 |
| 20260505174341 | 29 | 345 | 3.2 | 11.3 | 0.00 | 0.00 | 0.00 | 39 | 1013.8 |
| 20260505173836 | 28 | 199 | 8.0 | 16.1 | 0.00 | 0.00 | 0.00 | 39 | 1014.0 |
| 20260505173333 | 28 | 236 | 4.8 | 6.4 | 0.00 | 0.00 | 0.00 | 40 | 1014.1 |
| 20260505172830 | 28 | 240 | 1.6 | 11.3 | 0.00 | 0.00 | 0.00 | 41 | 1014.3 |
| 20260505172328 | 28 | 219 | 6.4 | 8.0 | 0.00 | 0.00 | 0.00 | 42 | 1014.2 |
| 20260505171827 | 27 | 253 | 8.0 | 8.0 | 0.00 | 0.00 | 0.00 | 44 | 1014.3 |
| 20260505171325 | 28 | 212 | 4.8 | 14.5 | 0.00 | 0.00 | 0.00 | 45 | 1014.3 |
| 20260505170821 | 27 | 190 | 4.8 | 17.7 | 0.00 | 0.00 | 0.00 | 43 | 1014.3 |
| 20260505170318 | 27 | 300 | 0.0 | 12.9 | 0.00 | 0.00 | 0.00 | 43 | 1014.1 |
| 20260505165813 | 27 | 199 | 3.2 | 11.3 | 0.00 | 0.00 | 0.00 | 43 | 1014.3 |
| 20260505165309 | 28 | 221 | 3.2 | 8.0 | 0.00 | 0.00 | 0.00 | 45 | 1014.5 |
| 20260505164805 | 27 | 160 | 1.6 | 8.0 | 0.00 | 0.00 | 0.00 | 43 | 1014.3 |
| 20260505164302 | 26 | 235 | 4.8 | 16.1 | 0.00 | 0.00 | 0.00 | 47 | 1014.4 |
| 20260505163800 | 26 | 185 | 9.7 | 16.1 | 0.00 | 0.00 | 0.00 | 45 | 1014.5 |
| 20260505163259 | 27 | 168 | 3.2 | 9.7 | 0.00 | 0.00 | 0.00 | 46 | 1014.4 |
| 20260505162756 | 27 | 208 | 9.7 | 9.7 | 0.00 | 0.00 | 0.00 | 46 | 1014.8 |
| 20260505162253 | 26 | 172 | 9.7 | 9.7 | 0.00 | 0.00 | 0.00 | 47 | 1014.7 |
| 20260505161750 | 27 | 81 | 4.8 | 4.8 | 0.00 | 0.00 | 0.00 | 46 | 1015.0 |
| 20260505161247 | 26 | 283 | 3.2 | 11.3 | 0.00 | 0.00 | 0.00 | 45 | 1015.1 |
| 20260505160744 | 27 | 246 | 6.4 | 6.4 | 0.00 | 0.00 | 0.00 | 47 | 1015.0 |
| 20260505160242 | 25 | 249 | 8.0 | 14.5 | 0.00 | 0.00 | 0.00 | 48 | 1015.3 |
| 20260505153221 | 26 | 232 | 8.0 | 8.0 | 0.00 | 0.00 | 0.00 | 50 | 1015.2 |
| 20260505152718 | 25 | 225 | 4.8 | 11.3 | 0.00 | 0.00 | 0.00 | 50 | 1015.4 |
| 20260505152214 | 25 | 248 | 4.8 | 9.7 | 0.00 | 0.00 | 0.00 | 51 | 1015.5 |
| 20260505151709 | 25 | 190 | 3.2 | 8.0 | 0.00 | 0.00 | 0.00 | 53 | 1015.3 |
| 20260505151207 | 24 | 264 | 3.2 | 9.7 | 0.00 | 0.00 | 0.00 | 52 | 1015.3 |
| 20260505150703 | 23 | 327 | 6.4 | 11.3 | 0.00 | 0.00 | 0.00 | 52 | 1015.1 |
| 20260505150200 | 24 | 4 | 4.8 | 6.4 | 0.00 | 0.00 | 0.00 | 52 | 1015.2 |
| 20260505140633 | 22 | 237 | 3.2 | 8.0 | 0.00 | 0.00 | 0.00 | 55 | 1015.2 |
| 20260505140130 | 23 | 270 | 0.0 | 4.8 | 0.00 | 0.00 | 0.00 | 55 | 1015.1 |
| 20260505124543 | 19 | 330 | 0.0 | 9.7 | 0.00 | 0.00 | 0.00 | 67 | 1015.3 |
| 20260505124040 | 19 | 235 | 8.0 | 11.3 | 0.00 | 0.00 | 0.00 | 68 | 1015.6 |
| 20260505123536 | 18 | 230 | 4.8 | 4.8 | 0.00 | 0.00 | 0.00 | 69 | 1015.5 |
| 20260505123032 | 18 | 270 | 0.0 | 9.7 | 0.00 | 0.00 | 0.00 | 69 | 1015.7 |
| 20260505122530 | 17 | 262 | 1.6 | 4.8 | 0.00 | 0.00 | 0.00 | 71 | 1015.7 |
| 20260505122026 | 17 | 346 | 3.2 | 6.4 | 0.00 | 0.00 | 0.00 | 71 | 1015.4 |
| 20260505121523 | 17 | 228 | 0.0 | 11.3 | 0.00 | 0.00 | 0.00 | 70 | 1015.5 |
| 20260505121020 | 17 | 309 | 4.8 | 6.4 | 0.00 | 0.00 | 0.00 | 69 | 1015.3 |
| 20260505120516 | 17 | 165 | 3.2 | 4.8 | 0.00 | 0.00 | 0.00 | 71 | 1015.5 |
| 20260505120011 | 17 | 180 | 0.0 | 4.8 | 0.00 | 0.00 | 0.00 | 72 | 1015.2 |
| 20260505115506 | 18 | 180 | 1.6 | 3.2 | 0.00 | 0.00 | 0.00 | 70 | 1015.2 |
| 20260505115005 | 17 | 270 | 0.0 | 4.8 | 0.00 | 0.00 | 0.00 | 72 | 1015.3 |
| 20260505114501 | 17 | 105 | 0.0 | 4.8 | 0.00 | 0.00 | 0.00 | 74 | 1015.2 |
| 20260505113957 | 17 | 237 | 4.8 | 4.8 | 0.00 | 0.00 | 0.00 | 73 | 1015.2 |
| 20260505113454 | 16 | 262 | 4.8 | 6.4 | 0.00 | 0.00 | 0.00 | 74 | 1015.0 |
| 20260505112950 | 16 | 191 | 0.0 | 4.8 | 0.00 | 0.00 | 0.00 | 75 | 1015.2 |
| 20260505112447 | 16 | 173 | 6.4 | 6.4 | 0.00 | 0.00 | 0.00 | 75 | 1015.1 |
| 20260505111944 | 16 | 90 | 3.2 | 4.8 | 0.00 | 0.00 | 0.00 | 76 | 1014.9 |
| 20260505111438 | 15 | 233 | 0.0 | 4.8 | 0.00 | 0.00 | 0.00 | 78 | 1015.0 |
| 20260505110934 | 15 | 61 | 3.2 | 6.4 | 0.00 | 0.00 | 0.00 | 80 | 1014.9 |
| 20260505110432 | 14 | 180 | 0.0 | 3.2 | 0.00 | 0.00 | 0.00 | 83 | 1014.9 |
| 20260505101903 | 13 | 237 | 0.0 | 3.2 | 0.00 | 0.00 | 0.00 | 84 | 1014.5 |
| 20260505101357 | 13 | 262 | 0.0 | 3.2 | 0.00 | 0.00 | 0.00 | 83 | 1014.6 |
| 20260505100853 | 13 | 263 | 0.0 | 1.6 | 0.00 | 0.00 | 0.00 | 83 | 1014.6 |
| 20260505100350 | 13 | 97 | 0.0 | 0.0 | 0.00 | 0.00 | 0.00 | 83 | 1014.7 |
| 20260505095846 | 13 | 97 | 0.0 | 8.0 | 0.00 | 0.00 | 0.00 | 83 | 1014.7 |
| 20260505095344 | 13 | 243 | 0.0 | 3.2 | 0.00 | 0.00 | 0.00 | 82 | 1014.6 |
| 20260505094839 | 13 | 8 | 0.0 | 3.2 | 0.00 | 0.00 | 0.00 | 82 | 1014.6 |
| 20260505094336 | 14 | 209 | 0.0 | 8.0 | 0.00 | 0.00 | 0.00 | 81 | 1014.4 |
| 20260505093832 | 14 | 263 | 4.8 | 4.8 | 0.00 | 0.00 | 0.00 | 80 | 1014.4 |
| 20260505093330 | 14 | 154 | 1.6 | 3.2 | 0.00 | 0.00 | 0.00 | 80 | 1014.3 |
| 20260505092827 | 14 | 151 | 0.0 | 1.6 | 0.00 | 0.00 | 0.00 | 80 | 1014.4 |
| 20260505092325 | 14 | 194 | 0.0 | 1.6 | 0.00 | 0.00 | 0.00 | 80 | 1014.2 |
| 20260505091821 | 15 | 250 | 4.8 | 4.8 | 0.00 | 0.00 | 0.00 | 79 | 1014.2 |
| 20260505091320 | 15 | 320 | 3.2 | 4.8 | 0.00 | 0.00 | 0.00 | 79 | 1014.1 |
| 20260505090817 | 15 | 203 | 0.0 | 3.2 | 0.00 | 0.00 | 0.00 | 78 | 1014.1 |
| 20260505090316 | 15 | 210 | 3.2 | 4.8 | 0.00 | 0.00 | 0.00 | 78 | 1014.2 |
| 20260505085812 | 15 | 90 | 0.0 | 8.0 | 0.00 | 0.00 | 0.00 | 77 | 1014.2 |
| 20260505085310 | 15 | 246 | 3.2 | 3.2 | 0.00 | 0.00 | 0.00 | 78 | 1014.2 |
| 20260505084808 | 15 | 240 | 3.2 | 4.8 | 0.00 | 0.00 | 0.00 | 77 | 1014.0 |
| 20260505084306 | 15 | 194 | 6.4 | 6.4 | 0.00 | 0.00 | 0.00 | 77 | 1014.0 |
| 20260505083803 | 15 | 206 | 1.6 | 6.4 | 0.00 | 0.00 | 0.00 | 76 | 1014.1 |
| 20260505083300 | 15 | 251 | 0.0 | 3.2 | 0.00 | 0.00 | 0.00 | 77 | 1014.2 |
| 20260505082756 | 15 | 5 | 0.0 | 3.2 | 0.00 | 0.00 | 0.00 | 76 | 1014.3 |
| 20260505082253 | 15 | 234 | 0.0 | 6.4 | 0.00 | 0.00 | 0.00 | 76 | 1014.1 |
| 20260505081749 | 15 | 243 | 3.2 | 4.8 | 0.00 | 0.00 | 0.00 | 76 | 1014.2 |
| 20260505081246 | 15 | 195 | 0.0 | 1.6 | 0.00 | 0.00 | 0.00 | 76 | 1014.3 |
| 20260505080743 | 15 | 334 | 1.6 | 3.2 | 0.00 | 0.00 | 0.00 | 76 | 1014.2 |
| 20260505080238 | 15 | 168 | 1.6 | 4.8 | 0.00 | 0.00 | 0.00 | 75 | 1014.2 |
| 20260505075735 | 16 | 194 | 0.0 | 3.2 | 0.00 | 0.00 | 0.00 | 75 | 1014.3 |
| 20260505075232 | 16 | 270 | 0.0 | 4.8 | 0.00 | 0.00 | 0.00 | 74 | 1014.2 |
| 20260505074729 | 15 | 282 | 0.0 | 4.8 | 0.00 | 0.00 | 0.00 | 75 | 1014.2 |
| 20260505074226 | 15 | 0 | 0.0 | 0.0 | 0.00 | 0.00 | 0.00 | 75 | 1014.0 |
| 20260505073724 | 16 | 270 | 0.0 | 4.8 | 0.00 | 0.00 | 0.00 | 74 | 1014.0 |
| 20260505073221 | 16 | 345 | 0.0 | 3.2 | 0.00 | 0.00 | 0.00 | 74 | 1014.0 |
| 20260505072717 | 16 | 175 | 0.0 | 3.2 | 0.00 | 0.00 | 0.00 | 74 | 1013.9 |
| 20260505072214 | 16 | 300 | 1.6 | 3.2 | 0.00 | 0.00 | 0.00 | 74 | 1013.9 |
| 20260505071709 | 15 | 203 | 0.0 | 6.4 | 0.00 | 0.00 | 0.00 | 75 | 1013.8 |
| 20260505071207 | 16 | 251 | 1.6 | 3.2 | 0.00 | 0.00 | 0.00 | 74 | 1013.8 |
| 20260505070704 | 16 | 203 | 1.6 | 3.2 | 0.00 | 0.00 | 0.00 | 74 | 1013.9 |
| 20260505070200 | 16 | 33 | 8.0 | 8.0 | 0.00 | 0.00 | 0.00 | 73 | 1013.9 |
| 20260505065656 | 16 | 186 | 0.0 | 4.8 | 0.00 | 0.00 | 0.00 | 73 | 1013.8 |
| 20260505065153 | 16 | 225 | 3.2 | 6.4 | 0.00 | 0.00 | 0.00 | 72 | 1013.7 |
| 20260505064650 | 16 | 0 | 1.6 | 3.2 | 0.00 | 0.00 | 0.00 | 72 | 1013.7 |
| 20260505064149 | 16 | 255 | 0.0 | 6.4 | 0.00 | 0.00 | 0.00 | 71 | 1013.8 |
| 20260505063646 | 16 | 220 | 4.8 | 6.4 | 0.00 | 0.00 | 0.00 | 71 | 1013.6 |
| 20260505063142 | 16 | 168 | 0.0 | 8.0 | 0.00 | 0.00 | 0.00 | 70 | 1014.0 |
| 20260505062638 | 16 | 151 | 3.2 | 4.8 | 0.00 | 0.00 | 0.00 | 70 | 1013.8 |
| 20260505062135 | 16 | 210 | 3.2 | 4.8 | 0.00 | 0.00 | 0.00 | 70 | 1013.7 |
| 20260505061633 | 16 | 186 | 0.0 | 4.8 | 0.00 | 0.00 | 0.00 | 70 | 1013.8 |
| 20260505061131 | 16 | 212 | 0.0 | 11.3 | 0.00 | 0.00 | 0.00 | 69 | 1013.7 |
| 20260505060628 | 16 | 194 | 0.0 | 4.8 | 0.00 | 0.00 | 0.00 | 69 | 1013.7 |
| 20260505060124 | 16 | 8 | 0.0 | 3.2 | 0.00 | 0.00 | 0.00 | 69 | 1013.6 |
| 20260505055620 | 16 | 90 | 3.2 | 4.8 | 0.00 | 0.00 | 0.00 | 69 | 1013.9 |
| 20260505055116 | 16 | 29 | 0.0 | 3.2 | 0.00 | 0.00 | 0.00 | 69 | 1013.8 |
| 20260505054614 | 17 | 217 | 0.0 | 4.8 | 0.00 | 0.00 | 0.00 | 69 | 1013.9 |
| 20260505054112 | 17 | 213 | 6.4 | 9.7 | 0.00 | 0.00 | 0.00 | 67 | 1013.7 |
| 20260505053609 | 17 | 232 | 3.2 | 9.7 | 0.00 | 0.00 | 0.00 | 68 | 1013.8 |
| 20260505053105 | 17 | 54 | 0.0 | 8.0 | 0.00 | 0.00 | 0.00 | 67 | 1013.6 |
| 20260505052602 | 17 | 183 | 4.8 | 6.4 | 0.00 | 0.00 | 0.00 | 66 | 1013.8 |
| 20260505052100 | 17 | 231 | 4.8 | 6.4 | 0.00 | 0.00 | 0.00 | 66 | 1013.8 |
| 20260505051557 | 17 | 328 | 3.2 | 4.8 | 0.00 | 0.00 | 0.00 | 67 | 1013.8 |
| 20260505051055 | 17 | 243 | 1.6 | 4.8 | 0.00 | 0.00 | 0.00 | 67 | 1013.6 |
| 20260505050552 | 17 | 246 | 0.0 | 6.4 | 0.00 | 0.00 | 0.00 | 67 | 1013.7 |